Location: Camp Forty Three
(37.9733°N, 119.9602°W)
Time: 07:07:20
(UTC+00:00)

Daily predictions for brighter satellites

Satellite Brightness Start Highest point End
(mag) Time Altitude Azimuth Time Altitude Azimuth Time Altitude Azimuth
ADEOS II 4.2 12:03:18 10° NW 12:04:47 11° WNW 12:06:15 10° WNW
Cosmos 1626 Rocket 4.3 12:00:46 10° SW 12:04:49 35° WNW 12:08:53 10° NNW
PAYLOAD A 4.3 12:02:32 10° N 12:07:43 61° WNW 12:13:00 10° SSW
Cosmos 1809 Rocket 4.5 12:02:23 10° N 12:08:29 77° W 12:14:34 10° S
